Weather History for KPMP - May, 2013

Change the Weather History Date:

Thursday, May 30, 2013

  Actual Average Record
Temperature  
Mean Temperature 78 °F -  
Max Temperature 84 °F 88 °F 93 °F (1974)
Min Temperature 75 °F 71 °F 60 °F (1978)
Cooling Degree Days 14    
Growing Degree Days 28 (Base 50)    
Moisture  
Dew Point 74 °F    
Average Humidity 87    
Maximum Humidity 100    
Minimum Humidity 76    
Precipitation  
Precipitation 0.09 in - - ()
Sea Level Pressure  
Sea Level Pressure 30.05 in    
Wind  
Wind Speed 18 mph (ESE)    
Max Wind Speed 23 mph    
Max Gust Speed 32 mph    
Visibility 10 miles    
Events Rain    
Averages and records for this station are not official NWS values.
T = Trace of Precipitation, MM = Missing Value Source: NWS Daily Summary

Daily Weather History Graph

Daily Weather History Graph

Search for Another Location

Airport or City:

Trip Planner

Search our weather history database for the weather conditions in past years. The results will help you decide how hot, cold, wet, or windy it might be!

Date:

Astronomy

May. 30, 2013 Rise Set
Actual Time 6:28 AM EDT 8:07 PM EDT
Civil Twilight 6:02 AM EDT 8:33 PM EDT
Nautical Twilight 5:31 AM EDT 9:04 PM EDT
Astronomical Twilight 4:59 AM EDT 9:37 PM EDT
Moon 12:26 AM EDT (5/30) 12:13 PM EDT (5/30)
Length of Visible Light 14h 31m
Length of Day
13h 39m
Waning Gibbous, 62% of the Moon is Illuminated
May 30
Waning Gibbous
May 31
Last Quarter
Jun 8
New
Jun 16
First Quarter
Jun 23
Full

Hourly Weather History & Observations

Time (EDT) Temp. Heat Index Dew Point Humidity Pressure Visibility Wind Dir Wind Speed Gust Speed Precip Events Conditions
12:17 AM 77.0 °F - - N/A% 30.06 in 10.0 mi ESE 17.3 mph 27.6 mph 0.01 in   Overcast
12:53 AM 77.0 °F - - N/A% 30.06 in 10.0 mi ESE 20.7 mph 25.3 mph 0.01 in   Partly Cloudy
1:53 AM 78.1 °F - - N/A% 30.05 in 10.0 mi ESE 17.3 mph 27.6 mph N/A   Mostly Cloudy
2:53 AM 78.1 °F - 73.0 °F 84% 30.03 in 10.0 mi East 16.1 mph 27.6 mph N/A   Overcast
3:53 AM 78.1 °F - 73.0 °F 84% 30.03 in 10.0 mi East 18.4 mph 25.3 mph N/A   Mostly Cloudy
4:53 AM 78.1 °F - 71.1 °F 79% 30.02 in 10.0 mi ESE 17.3 mph 25.3 mph N/A   Overcast
5:53 AM 78.1 °F - 73.9 °F 87% 30.03 in 10.0 mi East 16.1 mph 24.2 mph N/A   Mostly Cloudy
6:53 AM 75.9 °F - 75.0 °F 97% 30.04 in 10.0 mi ESE 15.0 mph 26.5 mph 0.00 in Rain Light Rain
7:32 AM 75.2 °F - 75.2 °F 100% 30.04 in 2.0 mi ESE 19.6 mph 26.5 mph 0.05 in Rain Rain
7:43 AM 75.2 °F - 75.2 °F 100% 30.04 in 7.0 mi ESE 15.0 mph 25.3 mph 0.05 in Rain Light Rain
7:53 AM 77.0 °F - 75.9 °F 96% 30.05 in 10.0 mi ESE 13.8 mph 23.0 mph 0.05 in   Overcast
8:53 AM 75.9 °F - 73.9 °F 94% 30.07 in 10.0 mi East 18.4 mph 24.2 mph N/A   Mostly Cloudy
9:35 AM 77.0 °F - 73.4 °F 89% 30.07 in 10.0 mi East 19.6 mph 25.3 mph N/A   Mostly Cloudy
9:42 AM 77.0 °F - 73.4 °F 89% 30.07 in 10.0 mi ESE 18.4 mph 27.6 mph N/A   Overcast
9:53 AM 78.1 °F - 73.9 °F 87% 30.07 in 10.0 mi East 16.1 mph 24.2 mph N/A   Overcast
10:53 AM 81.0 °F 86.7 °F 75.0 °F 82% 30.08 in 10.0 mi ESE 18.4 mph - N/A   Mostly Cloudy
11:53 AM 82.0 °F 87.9 °F 73.9 °F 76% 30.07 in 10.0 mi ESE 19.6 mph 26.5 mph N/A   Overcast
12:00 PM 80.6 °F 85.4 °F 73.4 °F 79% 30.07 in 10.0 mi East 21.9 mph 27.6 mph N/A   Overcast
12:53 PM 77.0 °F - 75.9 °F 96% 30.07 in 5.0 mi ESE 19.6 mph 31.1 mph 0.00 in Rain Light Rain
1:53 PM 81.0 °F 87.3 °F 75.9 °F 85% 30.06 in 10.0 mi East 19.6 mph 26.5 mph 0.02 in   Mostly Cloudy
2:53 PM 80.1 °F 85.1 °F 75.0 °F 85% 30.04 in 10.0 mi East 23.0 mph 31.1 mph N/A   Mostly Cloudy
3:53 PM 79.0 °F - 75.9 °F 90% 30.03 in 10.0 mi East 20.7 mph 28.8 mph 0.00 in Rain Light Rain
4:53 PM 80.1 °F 85.4 °F 75.9 °F 87% 30.01 in 10.0 mi ESE 20.7 mph 29.9 mph 0.01 in   Mostly Cloudy
5:53 PM 80.1 °F 84.2 °F 73.0 °F 79% 30.01 in 10.0 mi ESE 21.9 mph 32.2 mph N/A   Overcast
6:53 PM 80.1 °F 84.2 °F 73.0 °F 79% 30.02 in 10.0 mi ESE 23.0 mph 31.1 mph N/A   Partly Cloudy
7:53 PM 79.0 °F - 73.0 °F 82% 30.04 in 10.0 mi East 20.7 mph 27.6 mph N/A   Partly Cloudy
8:53 PM 78.1 °F - 73.0 °F 84% 30.05 in 10.0 mi East 17.3 mph - N/A   Mostly Cloudy
9:33 PM 78.8 °F - 73.4 °F 83% 30.06 in 10.0 mi ESE 17.3 mph 23.0 mph N/A   Overcast
9:53 PM 78.1 °F - 73.9 °F 87% 30.07 in 10.0 mi East 15.0 mph - N/A   Mostly Cloudy
10:19 PM 78.8 °F - 75.2 °F 89% 30.05 in 10.0 mi East 20.7 mph 27.6 mph 0.00 in Rain Light Rain
10:53 PM 78.1 °F - 75.0 °F 90% 30.06 in 10.0 mi ESE 19.6 mph 29.9 mph 0.00 in   Mostly Cloudy
11:00 PM 78.8 °F - 75.2 °F 89% 30.06 in 10.0 mi ESE 21.9 mph 29.9 mph N/A   Mostly Cloudy
11:53 PM 78.1 °F - 75.0 °F 90% 30.07 in 10.0 mi ESE 19.6 mph 27.6 mph N/A   Mostly Cloudy